Location: ???????
(60.4260°N, 46.9069°E)
Time: 18:42:29
(UTC+00:00)

IRS-1D - Pass Details

Date: 30 March 2020
Orbit: 741 x 816 km, 98.6° (Epoch: 06 June)

Event Time Altitude Azimuth Distance (km) Brightness Sun altitude
Rises 00:49:28 0° 17° (NNE) 3,196 7.5 -11.6°
Reaches altitude 10° 00:51:55 10° 9° (N) 2,271 6.5 -11.3°
Maximum altitude 00:56:23 35° 305° (NW) 1,211 4.3 -10.8°
Enters shadow 01:00:08 14° 246° (WSW) 2,019 5.0 -10.4°
